When you browse on this site, cookies collect data to enhance your experience and personalize the content and advertising you see.
Visit our Privacy Policy to learn more. By continuing to use the site, you agree to this use of cookies and data.
  • In United Kingdom
  • List of Countries
  • For 7 days
  • Water Temperature
  • Weather Map
  • Weather Widgets
  • user-avatar
    Login

    Hourly Weather Reading

    Today, 20 November, Wednesday

    Time Temperature Precipitation Wind Pressure Humidity
    00:00 +4°C° 0 mm 3 mps 757 mmHg 93%
    01:00 +4°C° 0 mm 3 mps 756 mmHg 93%
    02:00 +4°C° 0 mm 3 mps 756 mmHg 93%
    03:00 +5°C° 0 mm 3 mps 756 mmHg 93%
    04:00 +5°C° 0 mm 4 mps 756 mmHg 93%
    05:00 +5°C° 0 mm 4 mps 756 mmHg 92%
    06:00 +5°C° 0 mm 4 mps 756 mmHg 91%
    07:00 +5°C° 0 mm 4 mps 756 mmHg 89%
    08:00 +5°C° 0 mm 4 mps 756 mmHg 88%
    09:00 +5°C° 0 mm 4 mps 756 mmHg 86%
    10:00 +5°C° 0 mm 5 mps 755 mmHg 82%
    11:00 +5°C° 0 mm 6 mps 755 mmHg 79%
    12:00 +5°C° 0 mm 6 mps 755 mmHg 75%
    13:00 +4°C° 0 mm 6 mps 754 mmHg 76%
    14:00 +4°C° 0 mm 6 mps 754 mmHg 76%
    15:00 +5°C° 0 mm 5 mps 753 mmHg 77%
    16:00 +3°C° 0 mm 5 mps 753 mmHg 78%
    17:00 +2°C° 0 mm 5 mps 753 mmHg 79%
    18:00 +2°C° 0 mm 5 mps 753 mmHg 81%
    19:00 +2°C° 0 mm 5 mps 752 mmHg 82%
    20:00 +2°C° 0 mm 5 mps 752 mmHg 84%
    21:00 +2°C° 0 mm 5 mps 752 mmHg 86%
    22:00 +2°C° 0 mm 5 mps 752 mmHg 87%
    23:00 +2°C° 0 mm 5 mps 752 mmHg 88%

    Tomorrow, 21 November, Thursday

    Time Temperature Precipitation Wind Pressure Humidity
    00:00 +3°C° 0 mm 4 mps 751 mmHg 90%
    01:00 +3°C° 0 mm 4 mps 751 mmHg 89%
    02:00 +3°C° 0 mm 5 mps 750 mmHg 88%
    03:00 +3°C° 0 mm 5 mps 750 mmHg 88%
    04:00 +3°C° 0 mm 5 mps 749 mmHg 89%
    05:00 +3°C° 0 mm 5 mps 749 mmHg 90%
    06:00 +2°C° 0 mm 5 mps 749 mmHg 90%
    07:00 +3°C° 0 mm 5 mps 749 mmHg 90%
    08:00 +3°C° 0 mm 5 mps 749 mmHg 90%
    09:00 +4°C° 0 mm 6 mps 749 mmHg 90%
    10:00 +4°C° 0 mm 6 mps 748 mmHg 88%
    11:00 +5°C° 0 mm 6 mps 748 mmHg 86%
    12:00 +7°C° 0 mm 6 mps 747 mmHg 84%
    13:00 +7°C° 0.2 mm 6 mps 747 mmHg 86%
    14:00 +7°C° 0.2 mm 6 mps 746 mmHg 88%
    15:00 +7°C° 0.2 mm 6 mps 746 mmHg 90%
    16:00 +7°C° 0.7 mm 6 mps 746 mmHg 90%
    17:00 +7°C° 0.7 mm 5 mps 746 mmHg 90%
    18:00 +7°C° 0.7 mm 5 mps 746 mmHg 91%
    19:00 +7°C° 0.4 mm 4 mps 746 mmHg 92%
    20:00 +7°C° 0.4 mm 4 mps 746 mmHg 93%
    21:00 +8°C° 0.4 mm 3 mps 745 mmHg 94%
    22:00 +7°C° 0.4 mm 4 mps 745 mmHg 92%
    23:00 +7°C° 0.4 mm 4 mps 745 mmHg 90%

    Day after tomorrow, 22 November, Friday

    Time Temperature Precipitation Wind Pressure Humidity
    00:00 +7°C° 0.4 mm 4 mps 745 mmHg 88%
    01:00 +6°C° 0.4 mm 4 mps 745 mmHg 88%
    02:00 +6°C° 0.4 mm 4 mps 744 mmHg 88%
    03:00 +6°C° 0.4 mm 4 mps 744 mmHg 88%
    04:00 +6°C° 0.5 mm 4 mps 744 mmHg 89%
    05:00 +6°C° 0.5 mm 4 mps 745 mmHg 89%
    06:00 +6°C° 0.5 mm 4 mps 745 mmHg 90%
    07:00 +6°C° 0.2 mm 4 mps 745 mmHg 89%
    08:00 +6°C° 0.2 mm 4 mps 745 mmHg 89%
    09:00 +7°C° 0.2 mm 4 mps 745 mmHg 88%
    10:00 +7°C° 0.5 mm 4 mps 745 mmHg 90%
    11:00 +7°C° 0.5 mm 4 mps 745 mmHg 91%
    12:00 +7°C° 0.5 mm 4 mps 745 mmHg 92%
    13:00 +7°C° 0.1 mm 4 mps 745 mmHg 89%
    14:00 +8°C° 0.1 mm 4 mps 744 mmHg 86%
    15:00 +8°C° 0.1 mm 5 mps 744 mmHg 84%
    16:00 +7°C° 0 mm 5 mps 744 mmHg 84%
    17:00 +7°C° 0 mm 5 mps 744 mmHg 85%
    18:00 +6°C° 0 mm 5 mps 744 mmHg 86%
    19:00 +6°C° 0 mm 4 mps 744 mmHg 88%
    20:00 +6°C° 0 mm 4 mps 744 mmHg 89%
    21:00 +6°C° 0 mm 4 mps 744 mmHg 91%
    22:00 +6°C° 0 mm 4 mps 744 mmHg 91%
    23:00 +6°C° 0 mm 5 mps 744 mmHg 91%

    23 November, Saturday

    Time Temperature Precipitation Wind Pressure Humidity
    00:00 +6°C° 0 mm 5 mps 743 mmHg 91%
    01:00 +7°C° 0.1 mm 5 mps 743 mmHg 91%
    02:00 +7°C° 0.1 mm 5 mps 743 mmHg 91%
    03:00 +7°C° 0.1 mm 5 mps 743 mmHg 90%
    04:00 +7°C° 0.5 mm 5 mps 743 mmHg 91%
    05:00 +7°C° 0.5 mm 6 mps 743 mmHg 91%
    06:00 +7°C° 0.5 mm 6 mps 743 mmHg 91%
    07:00 +7°C° 0.3 mm 6 mps 743 mmHg 91%
    08:00 +7°C° 0.3 mm 6 mps 743 mmHg 91%
    09:00 +7°C° 0.3 mm 5 mps 743 mmHg 91%
    10:00 +7°C° 0.4 mm 5 mps 744 mmHg 92%
    11:00 +7°C° 0.4 mm 5 mps 744 mmHg 92%
    12:00 +7°C° 0.4 mm 4 mps 744 mmHg 93%
    13:00 +8°C° 0.4 mm 4 mps 744 mmHg 94%
    14:00 +8°C° 0.4 mm 4 mps 744 mmHg 94%
    15:00 +8°C° 0.4 mm 4 mps 745 mmHg 94%
    16:00 +8°C° 0.2 mm 4 mps 745 mmHg 93%
    17:00 +8°C° 0.2 mm 4 mps 746 mmHg 93%
    18:00 +8°C° 0.2 mm 3 mps 746 mmHg 92%
    19:00 +8°C° 0 mm 2 mps 747 mmHg 92%
    20:00 +8°C° 0 mm 2 mps 747 mmHg 92%
    21:00 +9°C° 0 mm 1 mps 748 mmHg 91%
    22:00 +9°C° 0 mm 1 mps 748 mmHg 92%
    23:00 +8°C° 0 mm 1 mps 749 mmHg 92%

    24 November, Sunday

    Time Temperature Precipitation Wind Pressure Humidity
    00:00 +8°C° 0 mm 1 mps 749 mmHg 93%
    01:00 +8°C° 0 mm 1 mps 749 mmHg 93%
    02:00 +8°C° 0 mm 1 mps 750 mmHg 94%
    03:00 +8°C° 0 mm 1 mps 750 mmHg 94%
    04:00 +8°C° 0 mm 1 mps 750 mmHg 95%
    05:00 +8°C° 0 mm 1 mps 751 mmHg 95%
    06:00 +6°C° 0 mm 2 mps 751 mmHg 95%
    07:00 +7°C° 0 mm 2 mps 752 mmHg 95%
    08:00 +7°C° 0 mm 2 mps 752 mmHg 95%
    09:00 +8°C° 0 mm 2 mps 753 mmHg 94%
    10:00 +8°C° 0 mm 2 mps 753 mmHg 91%
    11:00 +9°C° 0 mm 3 mps 753 mmHg 88%
    12:00 +10°C° 0 mm 3 mps 753 mmHg 85%
    13:00 +10°C° 0 mm 3 mps 753 mmHg 86%
    14:00 +9°C° 0 mm 3 mps 753 mmHg 87%
    15:00 +9°C° 0 mm 3 mps 753 mmHg 88%
    16:00 +9°C° 0 mm 3 mps 753 mmHg 89%
    17:00 +8°C° 0 mm 3 mps 753 mmHg 90%
    18:00 +8°C° 0 mm 3 mps 752 mmHg 92%
    19:00 +7°C° 0 mm 4 mps 752 mmHg 91%
    20:00 +7°C° 0 mm 5 mps 752 mmHg 90%
    21:00 +8°C° 0 mm 6 mps 751 mmHg 89%
    22:00 +8°C° 0.5 mm 7 mps 751 mmHg 90%
    23:00 +7°C° 0.5 mm 8 mps 750 mmHg 91%

    25 November, Monday

    Time Temperature Precipitation Wind Pressure Humidity
    00:00 +8°C° 0.5 mm 9 mps 749 mmHg 92%
    01:00 +9°C° 1.6 mm 8 mps 749 mmHg 93%
    02:00 +9°C° 1.6 mm 8 mps 748 mmHg 93%
    03:00 +10°C° 1.6 mm 8 mps 747 mmHg 94%
    04:00 +10°C° 0.5 mm 7 mps 746 mmHg 92%
    05:00 +10°C° 0.5 mm 7 mps 746 mmHg 90%
    06:00 +11°C° 0.5 mm 6 mps 745 mmHg 89%
    07:00 +10°C° 0.2 mm 6 mps 745 mmHg 88%
    08:00 +10°C° 0.2 mm 6 mps 745 mmHg 88%
    09:00 +10°C° 0.2 mm 6 mps 745 mmHg 87%
    10:00 +10°C° 0.2 mm 7 mps 745 mmHg 85%
    11:00 +10°C° 0.2 mm 7 mps 745 mmHg 83%
    12:00 +11°C° 0.2 mm 8 mps 745 mmHg 80%
    13:00 +10°C° 0.2 mm 8 mps 745 mmHg 80%
    14:00 +10°C° 0.2 mm 8 mps 745 mmHg 80%
    15:00 +10°C° 0.2 mm 8 mps 745 mmHg 80%
    16:00 +9°C° 0.2 mm 7 mps 745 mmHg 80%
    17:00 +8°C° 0.2 mm 7 mps 745 mmHg 81%
    18:00 +8°C° 0.2 mm 7 mps 745 mmHg 82%
    19:00 +6°C° 0 mm 7 mps 745 mmHg 82%
    20:00 +6°C° 0 mm 7 mps 746 mmHg 82%
    21:00 +6°C° 0 mm 7 mps 746 mmHg 82%
    22:00 +6°C° 0 mm 7 mps 746 mmHg 82%
    23:00 +6°C° 0 mm 8 mps 745 mmHg 82%
    Show more